This demonstration page uses our WeatherBlox Daily Observations layout. Learn more.

Left ArrowRight Arrow

38.20091, -84.87328

Hourly Observations for July 14, 2019

Temp ( °F °C ) Dew Point ( °F °C ) Humidity (%) Winds ( mph kmh ) Pressure ( in mb ) Visibility ( mi km ) Precip ( " mm )
12:53 am 00:53 Clear 69 20.6 64 17.8 84 84 Calm 30.07 1018 10 16 0.00 0.00
1:53 am 01:53 Partly Cloudy 74 23.3 69 20.6 85 85 SW 8 13 30.08 1019 10 16 0.00 0.00
2:53 am 02:53 Clear 74 23.3 70 21.1 88 88 WSW 3 6 30.07 1018 10 16 0.00 0.00
3:53 am 03:53 Clear 74 23.3 70 21.1 88 88 VRB 3 6 30.07 1018 10 16 0.00 0.00
4:53 am 04:53 Clear 73 22.8 70 21.1 90 90 WNW 3 6 30.06 1018 10 16 0.00 0.00
5:53 am 05:53 Clear 71 21.7 69 20.6 94 94 Calm 30.07 1018 10 16 0.00 0.00
6:53 am 06:53 Sunny 71 21.7 68 20 90 90 Calm 30.09 1019 10 16 0.00 0.00
7:53 am 07:53 Mostly Cloudy 73 22.8 70 21.1 90 90 SSW 3 6 30.13 1020 10 16 0.00 0.00
8:53 am 08:53 Mostly Cloudy 75 23.9 71 21.7 88 88 SW 7 11 30.16 1021 10 16 0.00 0.00
9:53 am 09:53 Mostly Sunny 80 26.7 72 22.2 76 76 W 7 11 30.15 1021 10 16 0.00 0.00
10:13 am 10:13 Mostly Cloudy 81 27.2 71 21.7 72 72 WSW 7 11 30.14 1021 10 16 0.00 0.00
10:53 am 10:53 Mostly Cloudy 82 27.8 72 22.2 72 72 W 8 13 30.14 1021 10 16 0.00 0.00
11:51 am 11:51 Partly Cloudy 84 29 73 23 70 70 SSW 8 13 30.13 1020 10 16 0.00 0.00
11:53 am 11:53 Mostly Sunny 84 28.9 72 22.2 67 67 S 8 13 30.14 1021 10 16 0.00 0.00
12:53 pm 12:53 Sunny 87 30.6 72 22.2 61 61 WSW 8 13 30.13 1020 10 16 0.00 0.00
1:53 pm 13:53 Sunny 89 31.7 71 21.7 55 55 SW 10 17 30.11 1020 10 16 0.00 0.00
2:53 pm 14:53 Mostly Cloudy 88 31.1 71 21.7 57 57 WSW 3 6 30.11 1020 10 16 0.00 0.00
3:53 pm 15:53 Partly Cloudy 89 31.7 72 22.2 57 57 VRB 6 9 30.10 1019 10 16 0.00 0.00
4:53 pm 16:53 Partly Cloudy 90 32.2 72 22.2 56 56 WSW 8 13 30.08 1019 10 16 0.00 0.00
5:53 pm 17:53 Sunny 90 32.2 71 21.7 54 54 WSW 6 9 30.07 1018 10 16 0.00 0.00
7:53 pm 19:53 Sunny 85 29.4 72 22.2 65 65 WSW 6 9 30.07 1018 10 16 0.00 0.00
8:53 pm 20:53 Partly Cloudy 84 28.9 70 21.1 63 63 NW 8 13 30.09 1019 10 16 0.00 0.00
9:53 pm 21:53 Cloudy 83 28.3 68 20 61 61 NNE 6 9 30.12 1020 10 16 0.00 0.00
10:53 pm 22:53 Partly Cloudy 78 25.6 68 20 71 71 E 3 6 30.13 1020 10 16 0.00 0.00
11:04 pm 23:04 Mostly Clear with Nearby Thunderstorms 77 25 68 20 74 74 E 6 9 30.12 1020 10 16 0.00 0.00
11:50 pm 23:50 Mostly Clear 75 24 66 19 74 74 Calm 30.12 1020 10 16 0.00 0.00
11:53 pm 23:53 Mostly Clear 76 24.4 67 19.4 74 74 Calm 30.12 1020 10 16 0.00 0.00

Powered by AerisWeather